User: anonymous   Login
Location: Twentynine Palms Airport
(34.1316°N, 115.9458°W)
Time: 20:39:47
(UTC-08:00)
Language:

Oscar 19 - Orbit

View from above orbital plane
View from above orbital plane
View from above satellite
View from above satellite

Ground track
Ground track

The orbit data is extracted from the following two-line orbital elements,

1 20442U 90005G   17018.77606620  .00000002  00000-0  16759-4 0  9991
2 20442  98.5639 316.9092 0010893 225.7438 134.2853 14.32845855410226
Epoch (UTC): 18 January 2017 18:37:32
Eccentricity: 0.0010893
inclination: 98.5639°
perigee height: 774 km
apogee height: 790 km
right ascension of ascending node: 316.9092°
argument of perigee: 225.7438°
revolutions per day: 14.32845855
mean anomaly at epoch: 134.2853°
orbit number at epoch: 41022

The dashed part of the orbit path shows where the satellite is in the earth's shadow,  

DLR